COSMOS 2499 DEB, 60612

Orbit data source: Space-Track

COSMOS 2499 DEB, 60612 is space debris in LEO originally from a launch on Fri, 23 May 2014 UTC launched from the Plesetsk Missile And Space Complex (PKMTR). Debris objects in space refer to the collection of defunct objects orbiting the Earth. Examples of debris include non-operational satellites, rocket bodies, and fragments generated from explosions, collisions, or faulty payload assembly.

Loading next visibility...
Identifier
60612, 2014-028BY
Orbit
LEO
Country
Flag of CISCIS
Related business
Manufacturer
TsNIIKhM
Mission
Spacecraft
Bus & Motor
Unknown
Mass
Unknown
Launch date (UTC)
2014-05-23 (12 years ago)
Launch vehicle
Unknown
Launch site
Plesetsk Missile And Space Complex (PKMTR)
Object type
Payload
Rocket body
Debris
Shape & HBR
Unknown shape, 0.1 m
Radar Cross Section
Small (<0.1 m²)

Expand to show TLE details & history
Last TLE update: 2 days ago

TLE from 2 days ago
0 COSMOS 2499 DEB
1 60612U 14028BY  25348.60227635  .00001152  00000-0  20080-2 0  9994
2 60612  82.1495 298.7391 0312085 265.2725  91.2702 13.25777821139370
Epoch: 2025-12-14T14:27Z
TLE epoch observation values (Epoch: 2025-12-14T14:27:16.676Z)
Latitude
-0.00009°
Longitude
-1.59323°
Altitude
1,178.09 km
Speed
7.258 km/s
True Right ascension
19h 54m 57s
True Declination
0° 00' 00"
Sunlit
Object was in daylight at epoch
Visualization orbit readout
Latitude
Unknown
Longitude
Unknown
Altitude
Unknown
Speed
Unknown
Apparent Right ascension
Unknown
Apparent Declination
Unknown
Sunlit
N/A
Visualization observer readout
Local Sidereal Time
12:45:37
Azimuth
Unknown
Elevation
Unknown
Doppler factor
Unknown
Orbital elements
Apogee altitude
1,395.229 km
Perigee altitude
924.722 km
Semi-major axis
7,538.113 km
Eccentricity
0.03121
Inclination
82.1495°
RAAN
298.7391°
Arg. of periapsis
265.2725°
True anomaly
94.84015°
Mean anomaly
91.2702°
Eccentric anomaly
93.05577°
Mean motion
3.31627 °/min
Orbital period
108.56 mins
BSTAR
0.002008
Loading maneuver chart data...
Computing Atmospheric mass density...
Loading historical data...
Loading historical data...
Loading historical data...
Loading historical data...
Loading historical data...
Loading historical data...
Loading historical data...

Documentation

Showing up to 5 results
|